Regional Weather Roundup
Issued by NWS Sioux Falls, SD

Home | Current Version | Previous Version | Graphics & Text | Print | Product List | Glossary Off
Versions: 1 2 3 4 5 6 7 8 9 10 11 12 13 14 15 16 17 18 19 20 21 22 23 24 25 26 27 28 29 30 31 32 33 34 35 36 37 38 39 40 41 42 43 44 45 46 47 48 49 50

000
ASUS43 KFSD 222202
RWRFSD

WEATHER ROUNDUP FOR SE SOUTH DAKOTA/SW MINNESOTA/NW IOWA
NATIONAL WEATHER SERVICE SIOUX FALLS SD
400 PM CST WED FEB 22 2017

NOTE: "FAIR" INDICATES FEW OR NO CLOUDS BELOW 12,000 FEET WITH NO
SIGNIFICANT WEATHER AND OR OBSTRUCTIONS TO VISIBILITY.


SDZ038>040-050-052>070-222300-
SOUTHEAST SOUTH DAKOTA

CITY           SKY/WX    TMP DP  RH WIND       PRES   REMARKS
BROOKINGS      MOSUNNY   50  42  74 NW15      29.66R
CHAMBERLAIN    MOSUNNY   55  40  57 NW12      29.75R
HURON          PTSUNNY   51  39  63 N17       29.71R
MADISON        FAIR      50  46  87 NW23G31   29.68R
MITCHELL       MOSUNNY   58  39  49 NW20G28   29.71R
SIOUX FALLS    CLOUDY    55  43  63 NW18G28   29.67R
WINNER         FAIR      60  30  32 NW20G28   29.74R
YANKTON        SUNNY    N/A N/A N/A NW23G29   29.67R
$$

MNZ071-072-080-081-089-090-097-098-222300-
SOUTHWEST MINNESOTA

CITY           SKY/WX    TMP DP  RH WIND       PRES   REMARKS
FAIRMONT       SUNNY     63  43  48 W17       29.58R
JACKSON          N/A     61  41  48 W20G26    29.60R
LUVERNE        PTSUNNY   54  41  62 NW20G28   29.65R
MARSHALL       CLOUDY    44  40  85 N21       29.65R
MONTEVIDEO     MOSUNNY   46  39  76 N14       29.66R
PIPESTONE      MOSUNNY   54  41  62 NW15      29.65R
REDWOOD FALLS  SUNNY     54  43  66 NW14G22   29.59R
TRACY          MOSUNNY   49  44  83 NW21      29.64R
WINDOM         SUNNY     61  43  51 W21G30    29.59R
WORTHINGTON    SUNNY     57  44  62 W22       29.62R
$$

IAZ001>003-012>014-020>022-031-032-NEZ013-014-SDZ071-222300-
NORTHWEST IOWA

CITY           SKY/WX    TMP DP  RH WIND       PRES   REMARKS
CHEROKEE       SUNNY     64  39  39 NW12G23   29.62F
DENISON        SUNNY     66  39  37 NW14G22   29.62R
ESTHERVILLE    SUNNY     60  47  61 W16       29.60R
LE MARS        SUNNY     64  41  42 NW14G24   29.66R
ORANGE CITY    SUNNY     61  45  55 W21G26    29.65R
SHELDON        SUNNY     63  46  55 NW21      29.62R
SIOUX CITY     SUNNY     68  36  30 NW24G30   29.64S
SPENCER        SUNNY     63  44  50 W20G28    29.62R
STORM LAKE     SUNNY     63  41  45 NW22G28   29.63R
$$

ABBREVIATIONS USED IN REMARKS
   TC - TEMPERATURE IN CELSIUS
  WCI - WIND CHILL INDEX
   HX - HEAT INDEX
  VSB - VISIBILITY




USA.gov is the U.S. government's official web portal to all federal, state and local government web resources and services.